,,Stat6,,Stat2,,Stat8,,Stat9,,Stat10,,Wind1,,Wind1,
time,status,PA1M_AVG,status,PR1M_SUM,status,RH1M_AVG,status,SR1M_AVG,status,TA1M_AVG,status,W1dAve1m,status,W1sAve1m,
2009-08-09, 00:00:00,VALID,916.758,VALID,0,VALID,100,VALID,-0.0169808,VALID,20.5908,VALID,34,VALID,0.618786,
2009-08-09, 00:01:00,VALID,916.775,VALID,0,VALID,100,VALID,-0.0339617,VALID,20.5873,VALID,11,VALID,0.216654,
2009-08-09, 00:02:00,VALID,916.761,VALID,0,VALID,100,VALID,-0.0339617,VALID,20.5903,VALID,19,VALID,0.0843023,
2009-08-09, 00:03:00,VALID,916.75,VALID,0,VALID,100,VALID,-0.0679233,VALID,20.6105,VALID,18,VALID,0,
2009-08-09, 00:04:00,VALID,916.74,VALID,0,VALID,100,VALID,-0.0169808,VALID,20.6132,VALID,9,VALID,0,
2009-08-09, 00:05:00,VALID,916.724,VALID,0,VALID,100,VALID,-0.0169808,VALID,20.607,VALID,21,VALID,0.00136719,
2009-08-09, 00:06:00,VALID,916.671,VALID,0,VALID,100,VALID,-0.0169808,VALID,20.6032,VALID,26,VALID,0.222356,
2009-08-09, 00:07:00,VALID,916.637,VALID,0,VALID,100,VALID,0,VALID,20.5973,VALID,25,VALID,0.486235,
2009-08-09, 00:08:00,VALID,916.64,VALID,0,VALID,100,VALID,-0.0169808,VALID,20.5805,VALID,16,VALID,0.315341,
2009-08-09, 00:09:00,VALID,916.631,VALID,0,VALID,100,VALID,0,VALID,20.5838,VALID,14,VALID,0.0634301,
2009-08-09, 00:10:00,VALID,916.625,VALID,0,VALID,100,VALID,-0.0339617,VALID,20.5843,VALID,18,VALID,0.0797602,
2009-08-09, 00:11:00,VALID,916.628,VALID,0,VALID,100,VALID,-0.0339617,VALID,20.5773,VALID,15,VALID,0.0150923,
2009-08-09, 00:12:00,VALID,916.641,VALID,0,VALID,100,VALID,-0.0169808,VALID,20.5608,VALID,9,VALID,0.146763,
2009-08-09, 00:13:00,VALID,916.638,VALID,0,VALID,100,VALID,0.0169808,VALID,20.5448,VALID,9,VALID,0.0119048,
2009-08-09, 00:14:00,VALID,916.638,VALID,0,VALID,100,VALID,-0.0509425,VALID,20.5251,VALID,349,VALID,0.447311,
2009-08-09, 00:15:00,VALID,916.614,VALID,0,VALID,100,VALID,-0.0339617,VALID,20.5153,VALID,9,VALID,0.222202,
2009-08-09, 00:16:00,VALID,916.601,VALID,0,VALID,100,VALID,-0.0169808,VALID,20.5021,VALID,348,VALID,0.536204,
2009-08-09, 00:17:00,VALID,916.6,VALID,0,VALID,100,VALID,-0.0509425,VALID,20.5024,VALID,17,VALID,0.197856,
2009-08-09, 00:18:00,VALID,916.582,VALID,0,VALID,100,VALID,-0.0679233,VALID,20.4894,VALID,26,VALID,0.812691,
2009-08-09, 00:19:00,VALID,916.589,VALID,0,VALID,100,VALID,-0.0339617,VALID,20.4832,VALID,8,VALID,0.0478277,
2009-08-09, 00:20:00,VALID,916.608,VALID,0,VALID,100,VALID,-0.0339617,VALID,20.4829,VALID,15,VALID,0.0810547,
2009-08-09, 00:21:00,VALID,916.63,VALID,0,VALID,100,VALID,-0.0849042,VALID,20.4707,VALID,306,VALID,0.1788,
2009-08-09, 00:22:00,VALID,916.639,VALID,0,VALID,100,VALID,-0.0679233,VALID,20.4504,VALID,13,VALID,0.0710565,
2009-08-09, 00:23:00,VALID,916.682,VALID,0,VALID,100,VALID,-0.0169808,VALID,20.4504,VALID,23,VALID,0,
2009-08-09, 00:24:00,VALID,916.714,VALID,0,VALID,100,VALID,-0.0339617,VALID,20.4734,VALID,30,VALID,0,
2009-08-09, 00:25:00,VALID,916.735,VALID,0,VALID,100,VALID,0,VALID,20.4767,VALID,47,VALID,0,
2009-08-09, 00:26:00,VALID,916.752,VALID,0,VALID,100,VALID,0,VALID,20.4894,VALID,37,VALID,0,
2009-08-09, 00:27:00,VALID,916.764,VALID,0,VALID,100,VALID,0,VALID,20.4896,VALID,36,VALID,0,
2009-08-09, 00:28:00,VALID,916.748,VALID,0,VALID,100,VALID,-0.0169808,VALID,20.4889,VALID,37,VALID,0,
2009-08-09, 00:29:00,VALID,916.731,VALID,0,VALID,100,VALID,-0.0339617,VALID,20.5156,VALID,41,VALID,0,
2009-08-09, 00:30:00,VALID,916.738,VALID,0,VALID,100,VALID,-0.0169808,VALID,20.5253,VALID,35,VALID,0,
2009-08-09, 00:31:00,VALID,916.722,VALID,0,VALID,100,VALID,-0.0339617,VALID,20.5283,VALID,35,VALID,0,
2009-08-09, 00:32:00,VALID,916.718,VALID,0,VALID,100,VALID,-0.0339617,VALID,20.5416,VALID,35,VALID,0,
2009-08-09, 00:33:00,VALID,916.721,VALID,0,VALID,100,VALID,-0.0509425,VALID,20.5446,VALID,33,VALID,0,
2009-08-09, 00:34:00,VALID,916.703,VALID,0,VALID,100,VALID,-0.0339617,VALID,20.5478,VALID,35,VALID,0,
2009-08-09, 00:35:00,VALID,916.707,VALID,0,VALID,100,VALID,-0.0169808,VALID,20.5518,VALID,41,VALID,0.00260417,
2009-08-09, 00:36:00,VALID,916.699,VALID,0,VALID,100,VALID,-0.0339617,VALID,20.5418,VALID,31,VALID,0,
2009-08-09, 00:37:00,VALID,916.692,VALID,0,VALID,100,VALID,-0.0509425,VALID,20.5191,VALID,16,VALID,0.0342262,
2009-08-09, 00:38:00,VALID,916.685,VALID,0,VALID,100,VALID,-0.0339617,VALID,20.4967,VALID,19,VALID,0,
2009-08-09, 00:39:00,VALID,916.684,VALID,0,VALID,100,VALID,-0.0169808,VALID,20.4799,VALID,24,VALID,0,
2009-08-09, 00:40:00,VALID,916.68,VALID,0,VALID,100,VALID,-0.0339617,VALID,20.4732,VALID,30,VALID,0,
2009-08-09, 00:41:00,VALID,916.677,VALID,0,VALID,100,VALID,0,VALID,20.4734,VALID,14,VALID,0.133594,
2009-08-09, 00:42:00,VALID,916.701,VALID,0,VALID,100,VALID,0,VALID,20.4664,VALID,14,VALID,0,
2009-08-09, 00:43:00,VALID,916.707,VALID,0,VALID,100,VALID,0.0679233,VALID,20.4589,VALID,335,VALID,0,
2009-08-09, 00:44:00,VALID,916.678,VALID,0,VALID,100,VALID,0.0849042,VALID,20.4621,VALID,355,VALID,0,
2009-08-09, 00:45:00,VALID,916.664,VALID,0,VALID,100,VALID,0.0509425,VALID,20.4819,VALID,348,VALID,0,
2009-08-09, 00:46:00,VALID,916.643,VALID,0,VALID,100,VALID,0.0339617,VALID,20.4784,VALID,3,VALID,0.155134,
2009-08-09, 00:47:00,VALID,916.617,VALID,0,VALID,100,VALID,0.0339617,VALID,20.4684,VALID,8,VALID,0,
2009-08-09, 00:48:00,VALID,916.593,VALID,0,VALID,100,VALID,0.0849042,VALID,20.4781,VALID,353,VALID,0.0329649,
2009-08-09, 00:49:00,VALID,916.577,VALID,0,VALID,100,VALID,0.0849042,VALID,20.4716,VALID,10,VALID,0.0533854,
2009-08-09, 00:50:00,VALID,916.562,VALID,0,VALID,100,VALID,0.118866,VALID,20.4684,VALID,360,VALID,0.0415483,
2009-08-09, 00:51:00,VALID,916.544,VALID,0,VALID,100,VALID,0.101885,VALID,20.4584,VALID,4,VALID,0,
2009-08-09, 00:52:00,VALID,916.551,VALID,0,VALID,100,VALID,0.0679233,VALID,20.4459,VALID,15,VALID,0,
2009-08-09, 00:53:00,VALID,916.546,VALID,0,VALID,100,VALID,0.101885,VALID,20.4489,VALID,351,VALID,0,
2009-08-09, 00:54:00,VALID,916.538,VALID,0,VALID,100,VALID,0.0849042,VALID,20.4421,VALID,325,VALID,0,
2009-08-09, 00:55:00,VALID,916.529,VALID,0,VALID,100,VALID,0.101885,VALID,20.4391,VALID,341,VALID,0,
2009-08-09, 00:56:00,VALID,916.525,VALID,0,VALID,100,VALID,0.101885,VALID,20.4456,VALID,9,VALID,0,
2009-08-09, 00:57:00,VALID,916.516,VALID,0,VALID,100,VALID,0.0509425,VALID,20.4497,VALID,2,VALID,0,
2009-08-09, 00:58:00,VALID,916.494,VALID,0,VALID,100,VALID,0.0169808,VALID,20.4369,VALID,332,VALID,0,
2009-08-09, 00:59:00,VALID,916.485,VALID,0,VALID,100,VALID,-0.0339617,VALID,20.4404,VALID,346,VALID,0,
2009-08-09, 01:00:00,VALID,916.487,VALID,0,VALID,100,VALID,-0.0339617,VALID,20.4372,VALID,11,VALID,0,
2009-08-09, 01:01:00,VALID,916.483,VALID,0,VALID,100,VALID,-0.0169808,VALID,20.4442,VALID,12,VALID,0,
2009-08-09, 01:02:00,VALID,916.467,VALID,0,VALID,100,VALID,-0.0169808,VALID,20.4342,VALID,26,VALID,0,
2009-08-09, 01:03:00,VALID,916.464,VALID,0,VALID,100,VALID,-0.0339617,VALID,20.4212,VALID,31,VALID,0,
2009-08-09, 01:04:00,VALID,916.468,VALID,0,VALID,100,VALID,-0.0509425,VALID,20.4604,VALID,30,VALID,0,
2009-08-09, 01:05:00,VALID,916.441,VALID,0,VALID,100,VALID,-0.0169808,VALID,20.4764,VALID,30,VALID,0,
2009-08-09, 01:06:00,VALID,916.44,VALID,0,VALID,100,VALID,-0.0339617,VALID,20.4926,VALID,20,VALID,0,
2009-08-09, 01:07:00,VALID,916.423,VALID,0,VALID,100,VALID,0,VALID,20.4956,VALID,359,VALID,0,
2009-08-09, 01:08:00,VALID,916.41,VALID,0,VALID,100,VALID,-0.0169808,VALID,20.4891,VALID,359,VALID,0,
2009-08-09, 01:09:00,VALID,916.403,VALID,0,VALID,100,VALID,-0.0169808,VALID,20.5056,VALID,359,VALID,0,
2009-08-09, 01:10:00,VALID,916.386,VALID,0,VALID,100,VALID,-0.0339617,VALID,20.5151,VALID,359,VALID,0,
2009-08-09, 01:11:00,VALID,916.381,VALID,0,VALID,100,VALID,0,VALID,20.5151,VALID,359,VALID,0,
2009-08-09, 01:12:00,VALID,916.369,VALID,0,VALID,100,VALID,0,VALID,20.5246,VALID,359,VALID,0,
2009-08-09, 01:13:00,VALID,916.363,VALID,0,VALID,100,VALID,-0.0509425,VALID,20.5381,VALID,359,VALID,0,
2009-08-09, 01:14:00,VALID,916.345,VALID,0,VALID,100,VALID,0,VALID,20.5283,VALID,360,VALID,0,
2009-08-09, 01:15:00,VALID,916.329,VALID,0,VALID,100,VALID,0,VALID,20.5121,VALID,29,VALID,0,
2009-08-09, 01:16:00,VALID,916.316,VALID,0,VALID,100,VALID,-0.0169808,VALID,20.4929,VALID,29,VALID,0,
2009-08-09, 01:17:00,VALID,916.299,VALID,0,VALID,100,VALID,0,VALID,20.4537,VALID,29,VALID,0,
2009-08-09, 01:18:00,VALID,916.305,VALID,0,VALID,100,VALID,0,VALID,20.4345,VALID,23,VALID,0,
2009-08-09, 01:19:00,VALID,916.297,VALID,0,VALID,100,VALID,0,VALID,20.4047,VALID,16,VALID,0,
2009-08-09, 01:20:00,VALID,916.263,VALID,0,VALID,100,VALID,0,VALID,20.3823,VALID,17,VALID,0,
2009-08-09, 01:21:00,VALID,916.248,VALID,0,VALID,100,VALID,0,VALID,20.3596,VALID,15,VALID,0,
2009-08-09, 01:22:00,VALID,916.205,VALID,0,VALID,100,VALID,-0.0169808,VALID,20.3433,VALID,22,VALID,0,
2009-08-09, 01:23:00,VALID,916.189,VALID,0,VALID,100,VALID,0,VALID,20.3239,VALID,30,VALID,0,
2009-08-09, 01:24:00,VALID,916.151,VALID,0,VALID,100,VALID,0.0339617,VALID,20.3171,VALID,25,VALID,0,
2009-08-09, 01:25:00,VALID,916.13,VALID,0,VALID,100,VALID,0,VALID,20.3014,VALID,16,VALID,0,
2009-08-09, 01:26:00,VALID,916.093,VALID,0,VALID,100,VALID,0,VALID,20.2914,VALID,7,VALID,0,
2009-08-09, 01:27:00,VALID,916.091,VALID,0,VALID,100,VALID,0,VALID,20.2914,VALID,10,VALID,0,
2009-08-09, 01:28:00,VALID,916.075,VALID,0,VALID,100,VALID,0,VALID,20.2779,VALID,13,VALID,0,
2009-08-09, 01:29:00,VALID,916.058,VALID,0,VALID,100,VALID,0.0169808,VALID,20.2687,VALID,14,VALID,0,
2009-08-09, 01:30:00,VALID,916.046,VALID,0,VALID,100,VALID,0.0169808,VALID,20.2749,VALID,19,VALID,0.18192,
2009-08-09, 01:31:00,VALID,916.009,VALID,0,VALID,100,VALID,0,VALID,20.2719,VALID,20,VALID,0.00628811,
2009-08-09, 01:32:00,VALID,915.991,VALID,0,VALID,100,VALID,-0.0169808,VALID,20.2719,VALID,25,VALID,0.00090843,
2009-08-09, 01:33:00,VALID,915.949,VALID,0,VALID,100,VALID,0,VALID,20.2652,VALID,23,VALID,0.00130208,
2009-08-09, 01:34:00,VALID,915.918,VALID,0,VALID,100,VALID,-0.0169808,VALID,20.2657,VALID,24,VALID,0,
2009-08-09, 01:35:00,VALID,915.883,VALID,0,VALID,100,VALID,0,VALID,20.259,VALID,26,VALID,0.00121528,
2009-08-09, 01:36:00,VALID,915.85,VALID,0,VALID,100,VALID,0,VALID,20.2457,VALID,21,VALID,0,
2009-08-09, 01:37:00,VALID,915.819,VALID,0,VALID,100,VALID,0.0169808,VALID,20.2557,VALID,26,VALID,0,
2009-08-09, 01:38:00,VALID,915.795,VALID,0,VALID,100,VALID,0.0339617,VALID,20.2422,VALID,16,VALID,0,
2009-08-09, 01:39:00,VALID,915.773,VALID,0,VALID,100,VALID,0.0169808,VALID,20.2395,VALID,1,VALID,0,
2009-08-09, 01:40:00,VALID,915.749,VALID,0,VALID,100,VALID,-0.0169808,VALID,20.2392,VALID,4,VALID,0.00106534,
2009-08-09, 01:41:00,VALID,915.727,VALID,0,VALID,100,VALID,0,VALID,20.2295,VALID,8,VALID,0,
2009-08-09, 01:42:00,VALID,915.712,VALID,0,VALID,100,VALID,-0.0339617,VALID,20.2297,VALID,12,VALID,0,
2009-08-09, 01:43:00,VALID,915.692,VALID,0,VALID,100,VALID,-0.0169808,VALID,20.22,VALID,23,VALID,0,
2009-08-09, 01:44:00,VALID,915.66,VALID,0,VALID,100,VALID,0,VALID,20.204,VALID,23,VALID,0,
2009-08-09, 01:45:00,VALID,915.642,VALID,0,VALID,100,VALID,0,VALID,20.1873,VALID,23,VALID,0,
2009-08-09, 01:46:00,VALID,915.626,VALID,0,VALID,100,VALID,-0.0169808,VALID,20.1905,VALID,24,VALID,0,
2009-08-09, 01:47:00,VALID,915.601,VALID,0,VALID,100,VALID,0.0169808,VALID,20.1968,VALID,26,VALID,0,
2009-08-09, 01:48:00,VALID,915.581,VALID,0,VALID,100,VALID,0,VALID,20.2038,VALID,30,VALID,0,
2009-08-09, 01:49:00,VALID,915.546,VALID,0,VALID,100,VALID,0,VALID,20.22,VALID,54,VALID,0,
2009-08-09, 01:50:00,VALID,915.529,VALID,0,VALID,100,VALID,-0.0169808,VALID,20.2138,VALID,110,VALID,0,
2009-08-09, 01:51:00,VALID,915.5,VALID,0,VALID,100,VALID,-0.0339617,VALID,20.217,VALID,116,VALID,0,
2009-08-09, 01:52:00,VALID,915.495,VALID,0,VALID,100,VALID,-0.0679233,VALID,20.2173,VALID,116,VALID,0,
2009-08-09, 01:53:00,VALID,915.482,VALID,0,VALID,100,VALID,-0.0169808,VALID,20.2135,VALID,116,VALID,0,
2009-08-09, 01:54:00,VALID,915.459,VALID,0,VALID,100,VALID,-0.0339617,VALID,20.22,VALID,116,VALID,0,
2009-08-09, 01:55:00,VALID,915.449,VALID,0,VALID,100,VALID,0,VALID,20.2133,VALID,116,VALID,0,
2009-08-09, 01:56:00,VALID,915.444,VALID,0,VALID,100,VALID,-0.0169808,VALID,20.2268,VALID,116,VALID,0,
2009-08-09, 01:57:00,VALID,915.423,VALID,0,VALID,100,VALID,0,VALID,20.2068,VALID,116,VALID,0,
2009-08-09, 01:58:00,VALID,915.403,VALID,0,VALID,100,VALID,0,VALID,20.1746,VALID,116,VALID,0,
2009-08-09, 01:59:00,VALID,915.395,VALID,0,VALID,100,VALID,-0.0339617,VALID,20.1389,VALID,116,VALID,0,
2009-08-09, 02:00:00,VALID,915.375,VALID,0,VALID,100,VALID,0,VALID,20.1262,VALID,116,VALID,0,
2009-08-09, 02:01:00,VALID,915.377,VALID,0,VALID,100,VALID,-0.0339617,VALID,20.1259,VALID,116,VALID,0,
2009-08-09, 02:02:00,VALID,915.365,VALID,0,VALID,100,VALID,0,VALID,20.1194,VALID,95,VALID,0,
2009-08-09, 02:03:00,VALID,915.371,VALID,0,VALID,100,VALID,-0.0339617,VALID,20.1129,VALID,71,VALID,0,
2009-08-09, 02:04:00,VALID,915.383,VALID,0,VALID,100,VALID,-0.0169808,VALID,20.0967,VALID,71,VALID,0,
2009-08-09, 02:05:00,VALID,915.388,VALID,0,VALID,100,VALID,0,VALID,20.0867,VALID,32,VALID,0,
2009-08-09, 02:06:00,VALID,915.419,VALID,0,VALID,100,VALID,0.0169808,VALID,20.0867,VALID,15,VALID,0,
2009-08-09, 02:07:00,VALID,915.429,VALID,0,VALID,100,VALID,0,VALID,20.0967,VALID,15,VALID,0,
2009-08-09, 02:08:00,VALID,915.421,VALID,0,VALID,100,VALID,-0.0169808,VALID,20.1034,VALID,15,VALID,0,
2009-08-09, 02:09:00,VALID,915.405,VALID,0,VALID,100,VALID,-0.101885,VALID,20.1112,VALID,15,VALID,0,
2009-08-09, 02:10:00,VALID,915.381,VALID,0,VALID,100,VALID,-0.118866,VALID,20.1112,VALID,15,VALID,0,
2009-08-09, 02:11:00,VALID,915.374,VALID,0,VALID,100,VALID,-0.118866,VALID,20.1112,VALID,15,VALID,0,
2009-08-09, 02:12:00,VALID,915.378,VALID,0,VALID,100,VALID,-0.0509425,VALID,20.1104,VALID,15,VALID,0,
2009-08-09, 02:13:00,VALID,915.378,VALID,0,VALID,100,VALID,0,VALID,20.1032,VALID,14,VALID,0,
2009-08-09, 02:14:00,VALID,915.368,VALID,0,VALID,100,VALID,0,VALID,20.0999,VALID,14,VALID,0,
2009-08-09, 02:15:00,VALID,915.351,VALID,0,VALID,100,VALID,-0.0339617,VALID,20.0772,VALID,14,VALID,0,
2009-08-09, 02:16:00,VALID,915.306,VALID,0,VALID,100,VALID,-0.0169808,VALID,20.0637,VALID,13,VALID,0,
2009-08-09, 02:17:00,VALID,915.256,VALID,0,VALID,100,VALID,0,VALID,20.067,VALID,13,VALID,0,
2009-08-09, 02:18:00,VALID,915.207,VALID,0,VALID,100,VALID,0.0169808,VALID,20.0345,VALID,13,VALID,0,
2009-08-09, 02:19:00,VALID,915.168,VALID,0,VALID,100,VALID,-0.0169808,VALID,20.0186,VALID,13,VALID,0,
2009-08-09, 02:20:00,VALID,915.122,VALID,0,VALID,100,VALID,-0.0169808,VALID,19.9312,VALID,13,VALID,0,
2009-08-09, 02:21:00,VALID,915.092,VALID,0,VALID,100,VALID,0,VALID,19.876,VALID,13,VALID,0,
2009-08-09, 02:22:00,VALID,915.063,VALID,0,VALID,100,VALID,-0.0169808,VALID,19.8528,VALID,13,VALID,0,
2009-08-09, 02:23:00,VALID,915.04,VALID,0,VALID,100,VALID,0.0169808,VALID,19.8206,VALID,19,VALID,0,
2009-08-09, 02:24:00,VALID,915.035,VALID,0,VALID,100,VALID,0,VALID,19.7979,VALID,58,VALID,0,
2009-08-09, 02:25:00,VALID,915.029,VALID,0,VALID,100,VALID,-0.0169808,VALID,19.6941,VALID,59,VALID,0,
2009-08-09, 02:26:00,VALID,915.041,VALID,0,VALID,100,VALID,0,VALID,19.6262,VALID,62,VALID,0,
2009-08-09, 02:27:00,VALID,915.063,VALID,0,VALID,100,VALID,0,VALID,19.6032,VALID,63,VALID,0,
2009-08-09, 02:28:00,VALID,915.07,VALID,0,VALID,100,VALID,-0.0169808,VALID,19.5842,VALID,63,VALID,0,
2009-08-09, 02:29:00,VALID,915.069,VALID,0,VALID,100,VALID,-0.0169808,VALID,19.5353,VALID,63,VALID,0,
2009-08-09, 02:30:00,VALID,915.075,VALID,0,VALID,100,VALID,0.0169808,VALID,19.4832,VALID,63,VALID,0,
2009-08-09, 02:31:00,VALID,915.073,VALID,0,VALID,100,VALID,0.0169808,VALID,19.4315,VALID,63,VALID,0,
2009-08-09, 02:32:00,VALID,915.053,VALID,0,VALID,100,VALID,0.0169808,VALID,19.3631,VALID,63,VALID,0,
2009-08-09, 02:33:00,VALID,915.039,VALID,0,VALID,100,VALID,0.0169808,VALID,19.3469,VALID,63,VALID,0,
2009-08-09, 02:34:00,VALID,915.029,VALID,0,VALID,100,VALID,-0.0169808,VALID,19.3172,VALID,63,VALID,0,
2009-08-09, 02:35:00,VALID,915.029,VALID,0,VALID,100,VALID,0,VALID,19.308,VALID,63,VALID,0,
2009-08-09, 02:36:00,VALID,915.019,VALID,0,VALID,100,VALID,0.0169808,VALID,19.2556,VALID,63,VALID,0,
2009-08-09, 02:37:00,VALID,915.025,VALID,0,VALID,100,VALID,0,VALID,19.2658,VALID,63,VALID,0,
2009-08-09, 02:38:00,VALID,915.022,VALID,0,VALID,100,VALID,0.0169808,VALID,19.2885,VALID,63,VALID,0,
2009-08-09, 02:39:00,VALID,915.027,VALID,0,VALID,100,VALID,0,VALID,19.2815,VALID,62,VALID,0,
2009-08-09, 02:40:00,VALID,915.02,VALID,0,VALID,100,VALID,0.0169808,VALID,19.308,VALID,26,VALID,0,
2009-08-09, 02:41:00,VALID,915.007,VALID,0,VALID,100,VALID,0,VALID,19.3661,VALID,14,VALID,0,
2009-08-09, 02:42:00,VALID,914.993,VALID,0,VALID,100,VALID,-0.0339617,VALID,19.4345,VALID,14,VALID,0,
2009-08-09, 02:43:00,VALID,914.988,VALID,0,VALID,100,VALID,0,VALID,19.4699,VALID,14,VALID,0,
2009-08-09, 02:44:00,VALID,914.967,VALID,0,VALID,100,VALID,0.0169808,VALID,19.4799,VALID,14,VALID,0,
2009-08-09, 02:45:00,VALID,914.964,VALID,0,VALID,100,VALID,0,VALID,19.4537,VALID,14,VALID,0,
2009-08-09, 02:46:00,VALID,914.957,VALID,0,VALID,100,VALID,0.0169808,VALID,19.4048,VALID,16,VALID,0,
2009-08-09, 02:47:00,VALID,914.952,VALID,0,VALID,100,VALID,0.0169808,VALID,19.3072,VALID,19,VALID,0,
2009-08-09, 02:48:00,VALID,914.946,VALID,0,VALID,100,VALID,0.0339617,VALID,19.311,VALID,19,VALID,0,
2009-08-09, 02:49:00,VALID,914.943,VALID,0,VALID,100,VALID,0.0169808,VALID,19.2947,VALID,19,VALID,0,
2009-08-09, 02:50:00,VALID,914.951,VALID,0,VALID,100,VALID,0,VALID,19.2758,VALID,19,VALID,0,
2009-08-09, 02:51:00,VALID,914.969,VALID,0,VALID,100,VALID,0.0339617,VALID,19.2398,VALID,19,VALID,0,
2009-08-09, 02:52:00,VALID,914.975,VALID,0,VALID,100,VALID,0,VALID,19.1842,VALID,19,VALID,0,
2009-08-09, 02:53:00,VALID,914.962,VALID,0,VALID,100,VALID,0.0169808,VALID,19.1842,VALID,19,VALID,0,
2009-08-09, 02:54:00,VALID,914.955,VALID,0,VALID,100,VALID,0,VALID,19.2236,VALID,19,VALID,0,
2009-08-09, 02:55:00,VALID,914.955,VALID,0,VALID,100,VALID,0.0169808,VALID,19.2393,VALID,19,VALID,0,
2009-08-09, 02:56:00,VALID,914.935,VALID,0,VALID,100,VALID,0,VALID,19.2229,VALID,19,VALID,0,
2009-08-09, 02:57:00,VALID,914.928,VALID,0,VALID,100,VALID,0,VALID,19.2496,VALID,19,VALID,0,
2009-08-09, 02:58:00,VALID,914.904,VALID,0,VALID,100,VALID,0.0169808,VALID,19.2461,VALID,19,VALID,0,
2009-08-09, 02:59:00,VALID,914.896,VALID,0,VALID,100,VALID,-0.0169808,VALID,19.2234,VALID,19,VALID,0,
2009-08-09, 03:00:00,VALID,914.861,VALID,0,VALID,100,VALID,-0.0169808,VALID,19.2101,VALID,19,VALID,0,
2009-08-09, 03:01:00,VALID,914.862,VALID,0,VALID,100,VALID,-0.0169808,VALID,19.2296,VALID,19,VALID,0,
2009-08-09, 03:02:00,VALID,914.836,VALID,0,VALID,100,VALID,0.0169808,VALID,19.1999,VALID,19,VALID,0,
2009-08-09, 03:03:00,VALID,914.8,VALID,0,VALID,100,VALID,-0.0339617,VALID,19.1188,VALID,75,VALID,0,
2009-08-09, 03:04:00,VALID,914.767,VALID,0,VALID,100,VALID,-0.0169808,VALID,19.019,VALID,152,VALID,0,
2009-08-09, 03:05:00,VALID,914.75,VALID,0,VALID,100,VALID,0.0169808,VALID,18.9736,VALID,160,VALID,0,
2009-08-09, 03:06:00,VALID,914.754,VALID,0,VALID,100,VALID,0,VALID,18.9703,VALID,161,VALID,0,
2009-08-09, 03:07:00,VALID,914.766,VALID,0,VALID,100,VALID,0,VALID,18.9838,VALID,161,VALID,0,
2009-08-09, 03:08:00,VALID,914.767,VALID,0,VALID,100,VALID,0,VALID,18.9835,VALID,161,VALID,0,
2009-08-09, 03:09:00,VALID,914.761,VALID,0,VALID,100,VALID,0,VALID,18.9868,VALID,165,VALID,0,
2009-08-09, 03:10:00,VALID,914.749,VALID,0,VALID,100,VALID,0,VALID,18.9835,VALID,165,VALID,0,
2009-08-09, 03:11:00,VALID,914.729,VALID,0,VALID,100,VALID,-0.0169808,VALID,18.9701,VALID,165,VALID,0,
2009-08-09, 03:12:00,VALID,914.698,VALID,0,VALID,100,VALID,0,VALID,18.9212,VALID,153,VALID,0,
2009-08-09, 03:13:00,VALID,914.678,VALID,0,VALID,100,VALID,0,VALID,18.9142,VALID,142,VALID,0,
2009-08-09, 03:14:00,VALID,914.65,VALID,0,VALID,100,VALID,0,VALID,18.8338,VALID,142,VALID,0,
2009-08-09, 03:15:00,VALID,914.634,VALID,0,VALID,100,VALID,0.0169808,VALID,18.7527,VALID,142,VALID,0,
2009-08-09, 03:16:00,VALID,914.609,VALID,0,VALID,100,VALID,-0.0169808,VALID,18.8308,VALID,142,VALID,0,
2009-08-09, 03:17:00,VALID,914.582,VALID,0,VALID,100,VALID,-0.0169808,VALID,18.9731,VALID,142,VALID,0,
2009-08-09, 03:18:00,VALID,914.562,VALID,0,VALID,100,VALID,0,VALID,19.0611,VALID,142,VALID,0,
2009-08-09, 03:19:00,VALID,914.557,VALID,0,VALID,100,VALID,0,VALID,18.9147,VALID,131,VALID,0,
2009-08-09, 03:20:00,VALID,914.555,VALID,0,VALID,100,VALID,0,VALID,18.7629,VALID,114,VALID,0,
2009-08-09, 03:21:00,VALID,914.562,VALID,0,VALID,100,VALID,-0.0169808,VALID,18.8271,VALID,114,VALID,0,
2009-08-09, 03:22:00,VALID,914.583,VALID,0,VALID,100,VALID,0.0169808,VALID,18.8853,VALID,114,VALID,0,
2009-08-09, 03:23:00,VALID,914.605,VALID,0,VALID,100,VALID,-0.0169808,VALID,18.911,VALID,114,VALID,0,
2009-08-09, 03:24:00,VALID,914.613,VALID,0,VALID,100,VALID,-0.0169808,VALID,18.873,VALID,114,VALID,0,
2009-08-09, 03:25:00,VALID,914.626,VALID,0,VALID,100,VALID,-0.0169808,VALID,18.7951,VALID,114,VALID,0,
2009-08-09, 03:26:00,VALID,914.646,VALID,0,VALID,100,VALID,-0.0169808,VALID,18.769,VALID,114,VALID,0,
2009-08-09, 03:27:00,VALID,914.673,VALID,0,VALID,100,VALID,-0.0169808,VALID,18.73,VALID,114,VALID,0,
2009-08-09, 03:28:00,VALID,914.684,VALID,0,VALID,100,VALID,0,VALID,18.7103,VALID,114,VALID,0,
2009-08-09, 03:29:00,VALID,914.706,VALID,0,VALID,100,VALID,-0.0169808,VALID,18.7265,VALID,114,VALID,0,
2009-08-09, 03:30:00,VALID,914.709,VALID,0,VALID,100,VALID,-0.0169808,VALID,18.7368,VALID,114,VALID,0,
2009-08-09, 03:31:00,VALID,914.72,VALID,0,VALID,100,VALID,0,VALID,18.7527,VALID,114,VALID,0,
2009-08-09, 03:32:00,VALID,914.707,VALID,0,VALID,100,VALID,-0.0169808,VALID,18.7625,VALID,114,VALID,0,
2009-08-09, 03:33:00,VALID,914.693,VALID,0,VALID,100,VALID,-0.0169808,VALID,18.762,VALID,133,VALID,0,
2009-08-09, 03:34:00,VALID,914.694,VALID,0,VALID,100,VALID,0,VALID,18.8012,VALID,156,VALID,0,
2009-08-09, 03:35:00,VALID,914.687,VALID,0,VALID,100,VALID,0,VALID,18.866,VALID,159,VALID,0,
2009-08-09, 03:36:00,VALID,914.668,VALID,0,VALID,100,VALID,0,VALID,18.908,VALID,159,VALID,0,
2009-08-09, 03:37:00,VALID,914.668,VALID,0,VALID,100,VALID,-0.0339617,VALID,18.9144,VALID,160,VALID,0,
2009-08-09, 03:38:00,VALID,914.687,VALID,0,VALID,100,VALID,0,VALID,18.9119,VALID,161,VALID,0,
2009-08-09, 03:39:00,VALID,914.717,VALID,0,VALID,100,VALID,0,VALID,18.8818,VALID,161,VALID,0,
2009-08-09, 03:40:00,VALID,914.748,VALID,0,VALID,100,VALID,0,VALID,18.905,VALID,161,VALID,0,
2009-08-09, 03:41:00,VALID,914.781,VALID,0,VALID,100,VALID,-0.0169808,VALID,18.8855,VALID,164,VALID,0.0132473,
2009-08-09, 03:42:00,VALID,914.81,VALID,0,VALID,100,VALID,-0.0509425,VALID,18.886,VALID,191,VALID,0.0261009,
2009-08-09, 03:43:00,VALID,914.809,VALID,0,VALID,100,VALID,-0.0509425,VALID,18.9059,VALID,202,VALID,0,
2009-08-09, 03:44:00,VALID,914.788,VALID,0,VALID,100,VALID,-0.0679233,VALID,18.9152,VALID,197,VALID,0.00109012,
2009-08-09, 03:45:00,VALID,914.77,VALID,0,VALID,100,VALID,-0.0679233,VALID,18.9089,VALID,184,VALID,0,
2009-08-09, 03:46:00,VALID,914.734,VALID,0,VALID,100,VALID,-0.0169808,VALID,18.8992,VALID,170,VALID,0,
2009-08-09, 03:47:00,VALID,914.724,VALID,0,VALID,100,VALID,0,VALID,18.9474,VALID,166,VALID,0,
2009-08-09, 03:48:00,VALID,914.714,VALID,0,VALID,100,VALID,-0.0339617,VALID,19.0025,VALID,157,VALID,0,
2009-08-09, 03:49:00,VALID,914.711,VALID,0,VALID,100,VALID,-0.0169808,VALID,19.022,VALID,155,VALID,0,
2009-08-09, 03:50:00,VALID,914.713,VALID,0,VALID,100,VALID,-0.0169808,VALID,18.9636,VALID,142,VALID,0.000186012,
2009-08-09, 03:51:00,VALID,914.726,VALID,0,VALID,100,VALID,-0.0339617,VALID,18.9284,VALID,136,VALID,0.0445312,
2009-08-09, 03:52:00,VALID,914.74,VALID,0,VALID,100,VALID,-0.0679233,VALID,18.9316,VALID,135,VALID,0.00381541,
2009-08-09, 03:53:00,VALID,914.746,VALID,0,VALID,100,VALID,-0.0339617,VALID,18.9481,VALID,135,VALID,0.000558036,
2009-08-09, 03:54:00,VALID,914.759,VALID,0,VALID,100,VALID,-0.0679233,VALID,18.9673,VALID,131,VALID,0.000363372,